Location: Aiyekoto
(8.4333°N, 4.3667°E)
Time: 10:37:37
(UTC+00:00)

Transit 2A - Visible Passes

Search period start: 26 September 2020 00:00
Search period end: 06 October 2020 00:00
Orbit: 592 x 967 km, 66.7° (Epoch: 25 September)

Date Brightness Start Highest point End Pass type
(mag) Time Alt. Az. Time Alt. Az. Time Alt. Az.
26 Sep 5.8 18:25:37 10° NNW 18:30:53 71° ENE 18:35:36 10° SSE visible
27 Sep 6.3 17:51:46 10° N 17:56:43 40° ENE 18:01:12 10° SE visible
27 Sep 9.0 19:38:35 10° W 19:39:20 10° WSW 19:40:05 10° WSW visible
28 Sep 8.5 19:01:50 10° WNW 19:05:21 19° WSW 19:08:40 10° SSW visible
29 Sep 7.7 18:26:47 10° NW 18:31:21 32° WSW 18:35:32 10° S visible
30 Sep 6.6 17:52:13 10° NNW 17:57:19 58° WSW 18:01:54 10° S visible
01 Oct 9.2 04:48:50 10° SE 04:52:10 16° ESE 04:55:38 10° ENE visible
03 Oct 8.8 17:54:34 10° WNW 17:57:40 17° WSW 18:00:37 10° SW visible
04 Oct 7.5 04:47:07 10° S 04:52:35 46° ESE 04:58:29 10° NE visible
05 Oct 8.4 04:13:39 10° SSE 04:18:33 29° ESE 04:23:44 10° NE visible
